ASA1124 PHLI-PHNL

Flight info

Callsign ASA1124
Flight time 0h 20m
Altitude 13000
Route LIH V15 BOOKE BOOKE8
Aircraft A21N/M-SDE2E3FGHIRWXY/LB1

Departure

Time 2026-04-26 21:05
Airport Lihue Airport (PHLI)

Arrival

Time 2026-04-26 21:25
Airport Daniel K. Inouye International Airport (PHNL)
Time Latitude Longitude Altitude Speed Heading
2026-04-26 20:51 21.97883 -159.34709 159 ft 0 kts 314°
2026-04-26 20:55 21.97879 -159.34705 159 ft 4 kts 314°
2026-04-26 20:55 21.97860 -159.34687 159 ft 4 kts 338°
2026-04-26 20:55 21.97838 -159.34684 159 ft 4 kts
2026-04-26 20:56 21.97812 -159.34691 159 ft 4 kts 26°
2026-04-26 20:56 21.97791 -159.34707 159 ft 4 kts 49°
2026-04-26 20:56 21.97775 -159.34730 159 ft 4 kts 50°
2026-04-26 20:56 21.97770 -159.34736 159 ft 0 kts 45°
2026-04-26 21:01 21.97779 -159.34726 159 ft 4 kts 45°
2026-04-26 21:01 21.97794 -159.34683 159 ft 8 kts 97°
2026-04-26 21:01 21.97758 -159.34633 153 ft 9 kts 136°
2026-04-26 21:01 21.97700 -159.34616 148 ft 10 kts 204°
2026-04-26 21:02 21.97639 -159.34679 152 ft 14 kts 225°
2026-04-26 21:02 21.97560 -159.34763 159 ft 18 kts 224°
2026-04-26 21:02 21.97492 -159.34836 160 ft 13 kts 226°
2026-04-26 21:02 21.97429 -159.34905 159 ft 14 kts 224°
2026-04-26 21:03 21.97392 -159.34937 158 ft 8 kts 204°
2026-04-26 21:03 21.97335 -159.34915 157 ft 11 kts 136°
2026-04-26 21:03 21.97314 -159.34866 157 ft 9 kts 62°
2026-04-26 21:03 21.97330 -159.34845 157 ft 0 kts 45°
2026-04-26 21:04 21.97397 -159.34774 159 ft 48 kts 44°
2026-04-26 21:04 21.97832 -159.34300 134 ft 127 kts 45°
2026-04-26 21:04 21.98491 -159.33604 667 ft 131 kts 44°
2026-04-26 21:05 21.98921 -159.32771 1266 ft 131 kts 82°
2026-04-26 21:05 21.98614 -159.31804 1607 ft 151 kts 123°
2026-04-26 21:05 21.97834 -159.30933 2045 ft 173 kts 129°
2026-04-26 21:05 21.96972 -159.29932 2593 ft 189 kts 124°
2026-04-26 21:06 21.96175 -159.28731 3202 ft 207 kts 122°
2026-04-26 21:06 21.95314 -159.27416 3891 ft 219 kts 123°
2026-04-26 21:06 21.94415 -159.26053 4714 ft 231 kts 123°
2026-04-26 21:06 21.93446 -159.24584 5265 ft 251 kts 123°
2026-04-26 21:07 21.92396 -159.22999 5952 ft 265 kts 124°
2026-04-26 21:07 21.91317 -159.21373 6881 ft 269 kts 124°
2026-04-26 21:07 21.90222 -159.19722 7798 ft 273 kts 124°
2026-04-26 21:07 21.89126 -159.18065 8644 ft 277 kts 124°
2026-04-26 21:08 21.87998 -159.16356 9454 ft 283 kts 124°
2026-04-26 21:08 21.86843 -159.14608 10174 ft 292 kts 124°
2026-04-26 21:08 21.85628 -159.12769 10508 ft 312 kts 124°
2026-04-26 21:08 21.84331 -159.10807 10778 ft 333 kts 124°
2026-04-26 21:09 21.82949 -159.08712 11036 ft 353 kts 124°
2026-04-26 21:09 21.81489 -159.06497 11278 ft 372 kts 124°
2026-04-26 21:09 21.81192 -159.06047 11326 ft 375 kts 124°
2026-04-26 21:09 21.79676 -159.03751 11550 ft 392 kts 124°
2026-04-26 21:10 21.78185 -159.01235 11850 ft 404 kts 120°
2026-04-26 21:10 21.76719 -158.98636 12342 ft 408 kts 120°
2026-04-26 21:10 21.75243 -158.96014 12782 ft 412 kts 120°
2026-04-26 21:10 21.73749 -158.93368 12945 ft 413 kts 120°
2026-04-26 21:11 21.72257 -158.90726 12975 ft 414 kts 120°
2026-04-26 21:11 21.70761 -158.88083 12969 ft 413 kts 120°
2026-04-26 21:11 21.69266 -158.85442 12954 ft 414 kts 120°
2026-04-26 21:11 21.67765 -158.82793 12948 ft 416 kts 121°
2026-04-26 21:12 21.66272 -158.80159 12744 ft 410 kts 120°
2026-04-26 21:12 21.64798 -158.77559 12454 ft 413 kts 120°
2026-04-26 21:12 21.63304 -158.74922 12289 ft 412 kts 121°
2026-04-26 21:12 21.61810 -158.72288 12136 ft 411 kts 120°
2026-04-26 21:13 21.60340 -158.69703 11766 ft 397 kts 120°
2026-04-26 21:13 21.58932 -158.67227 11493 ft 380 kts 120°
2026-04-26 21:13 21.57581 -158.64850 11267 ft 364 kts 121°
2026-04-26 21:13 21.56291 -158.62580 11048 ft 346 kts 120°
2026-04-26 21:14 21.55069 -158.60431 10833 ft 328 kts 120°
2026-04-26 21:14 21.53925 -158.58415 10580 ft 313 kts 121°
2026-04-26 21:14 21.52816 -158.56463 10310 ft 300 kts 121°
2026-04-26 21:14 21.51734 -158.54568 9792 ft 297 kts 121°
2026-04-26 21:15 21.50631 -158.52694 9231 ft 294 kts 122°
2026-04-26 21:15 21.49548 -158.50867 8776 ft 286 kts 122°
2026-04-26 21:15 21.48488 -158.49075 8363 ft 285 kts 121°
2026-04-26 21:15 21.47425 -158.47274 7989 ft 286 kts 121°
2026-04-26 21:16 21.46371 -158.45488 7651 ft 280 kts 121°
2026-04-26 21:16 21.45333 -158.43723 7286 ft 279 kts 121°
2026-04-26 21:16 21.44294 -158.41959 6905 ft 280 kts 122°
2026-04-26 21:16 21.43256 -158.40201 6553 ft 276 kts 122°
2026-04-26 21:17 21.42234 -158.38469 6155 ft 273 kts 122°
2026-04-26 21:17 21.41224 -158.36760 5947 ft 270 kts 121°
2026-04-26 21:17 21.40223 -158.35064 5547 ft 270 kts 121°
2026-04-26 21:17 21.39215 -158.33357 5084 ft 270 kts 121°
2026-04-26 21:18 21.38230 -158.31687 4698 ft 265 kts 121°
2026-04-26 21:18 21.37250 -158.30030 4297 ft 260 kts 121°
2026-04-26 21:18 21.36283 -158.28393 4020 ft 257 kts 121°
2026-04-26 21:18 21.35355 -158.26821 3950 ft 241 kts 121°
2026-04-26 21:19 21.34496 -158.25342 3941 ft 228 kts 121°
2026-04-26 21:19 21.33660 -158.23905 3958 ft 227 kts 121°
2026-04-26 21:19 21.32847 -158.22459 3976 ft 226 kts 115°
2026-04-26 21:19 21.32465 -158.20842 3948 ft 226 kts 92°
2026-04-26 21:20 21.32462 -158.19159 3861 ft 225 kts 89°
2026-04-26 21:20 21.32485 -158.17512 3752 ft 221 kts 89°
2026-04-26 21:20 21.32520 -158.15909 3653 ft 208 kts 88°
2026-04-26 21:20 21.32528 -158.14357 3543 ft 204 kts 89°
2026-04-26 21:21 21.32530 -158.12887 3368 ft 189 kts 89°
2026-04-26 21:21 21.32531 -158.11523 3170 ft 178 kts 90°
2026-04-26 21:21 21.32530 -158.10218 2929 ft 172 kts 89°
2026-04-26 21:21 21.32530 -158.08953 2715 ft 166 kts 89°
2026-04-26 21:22 21.32530 -158.07730 2500 ft 166 kts 88°
2026-04-26 21:22 21.32530 -158.06479 2278 ft 168 kts 87°
2026-04-26 21:22 21.32530 -158.05241 2045 ft 165 kts 88°
2026-04-26 21:23 21.32531 -158.02826 1595 ft 162 kts 88°
2026-04-26 21:23 21.32530 -158.01648 1369 ft 152 kts 87°
2026-04-26 21:23 21.32530 -158.00581 1180 ft 130 kts 89°
2026-04-26 21:23 21.32531 -157.99650 1020 ft 125 kts 86°
2026-04-26 21:24 21.32531 -157.98713 841 ft 127 kts 88°
2026-04-26 21:24 21.32530 -157.97759 720 ft 127 kts 86°
2026-04-26 21:24 21.32529 -157.96804 595 ft 129 kts 86°
2026-04-26 21:24 21.32532 -157.95835 330 ft 133 kts 88°
2026-04-26 21:25 21.32521 -157.94853 168 ft 132 kts 85°
2026-04-26 21:25 21.32526 -157.93854 47 ft 133 kts 86°
2026-04-26 21:25 21.32527 -157.92949 30 ft 98 kts 88°
2026-04-26 21:25 21.32526 -157.92513 30 ft 38 kts 89°
2026-04-26 21:26 21.32527 -157.92295 30 ft 17 kts 85°
2026-04-26 21:26 21.32597 -157.92279 30 ft 16 kts 329°
2026-04-26 21:26 21.32688 -157.92342 30 ft 13 kts 299°
2026-04-26 21:26 21.32693 -157.92451 30 ft 17 kts 269°
2026-04-26 21:27 21.32694 -157.92587 30 ft 20 kts 272°
2026-04-26 21:27 21.32699 -157.92737 30 ft 18 kts 287°
2026-04-26 21:27 21.32800 -157.92811 30 ft 21 kts
2026-04-26 21:27 21.32912 -157.92783 30 ft 16 kts 40°
2026-04-26 21:28 21.32999 -157.92690 30 ft 19 kts 45°
2026-04-26 21:28 21.33110 -157.92592 30 ft 22 kts 21°
2026-04-26 21:28 21.33269 -157.92553 30 ft 25 kts
2026-04-26 21:28 21.33399 -157.92535 29 ft 17 kts
2026-04-26 21:29 21.33502 -157.92548 29 ft 3 kts 328°
2026-04-26 21:29 21.33528 -157.92553 29 ft 5 kts 14°
2026-04-26 21:29 21.33556 -157.92519 29 ft 7 kts 52°
2026-04-26 21:29 21.33567 -157.92505 29 ft 0 kts 52°
2026-04-26 21:31 21.33592 -157.92528 29 ft 0 kts 72°
2026-04-26 21:35 21.33592 -157.92529 30 ft 0 kts 72°